Regional Weather Roundup
Issued by NWS

Home | Current Version | Previous Version | Graphics & Text | Print | Product List | Glossary On
Versions: 1 2 3 4 5 6 7 8 9 10 11 12 13 14 15 16 17 18 19 20 21 22 23 24 25 26 27 28 29 30 31 32 33 34 35 36 37 38 39 40 41 42 43 44 45 46 47 48 49 50
478
ASUS43 KLMK 101002
RWRKY
KENTUCKY REGIONAL WEATHER ROUNDUP
NATIONAL WEATHER SERVICE LOUISVILLE KY
500 AM EST SAT DEC 10 2016

NOTE "FAIR" INDICATES FEW OR NO CLOUDS BELOW 12,000 FEET
WITH NO SIGNIFICANT WEATHER AND/OR OBSTRUCTIONS TO VISIBILITY.

KYZ001>023-026-027-061>063-070>075-101100-
WESTERN AND SOUTH CENTRAL KENTUCKY

CITY           SKY/WX    TMP DP  RH WIND       PRES   REMARKS
PADUCAH        CLEAR     16  12  84 CALM      30.58F
HENDERSON      CLOUDY    19  16  86 CALM      30.59S
OWENSBORO      CLOUDY    20  18  92 CALM      30.59F
HOPKINSVILLE   CLEAR     19  15  84 CALM      30.57F
BOWLING GREEN  CLEAR     17  14  88 CALM      30.59S
GLASGOW        NOT AVBL
$$

KYZ024-025-028>034-038-045-046-053-101100-
NORTH CENTRAL KENTUCKY

CITY           SKY/WX    TMP DP  RH WIND       PRES   REMARKS
LOUISVILLE/SDF PTCLDY    23  14  68 SW8       30.57F WCI  14
LOUISVILLE/LOU CLEAR     23  14  68 SW3       30.57F
FORT KNOX      MOCLDY    15  11  87 S2        30.54F
$$

KYZ035>037-039>044-047>052-055>060-089>105-101100-
NORTHEAST KENTUCKY

CITY           SKY/WX    TMP DP  RH WIND       PRES   REMARKS
LEXINGTON      CLOUDY    20  14  77 SW3       30.55S
COVINGTON      CLOUDY    20  16  84 SW3       30.53F
FRANKFORT      CLEAR     17  12  80 W3        30.55S
$$

KYZ054-064>069-076>088-106>120-101100-
SOUTHEAST KENTUCKY

CITY           SKY/WX    TMP DP  RH WIND       PRES   REMARKS
JACKSON        CLOUDY    17  13  84 CALM      30.51R
LONDON         CLEAR     14  10  84 CALM      30.52F
SOMERSET       CLEAR     14  14 100 CALM      30.56F
MIDDLESBORO    CLEAR     16  14  93 CALM      30.54S
MONTICELLO     SUNNY      9   6  88 W8        30.57S WCI  -3
$$





USA.gov is the U.S. government's official web portal to all federal, state and local government web resources and services.